Location: Unspecified
(0.0000°N, 0.0000°E)
Time: 23:48:02
(UTC+00:00)

S-56A Canister/Altair - Pass Details

Date: 02 October 2020
Orbit: 633 x 2499 km, 38.9° (Epoch: 28 October)

Event Time Altitude Azimuth Distance (km) Brightness Sun altitude
Rises 12:55:15 0° 274° (W) 5,440 12.1 73.0°
Reaches altitude 10° 13:00:12 10° 290° (WNW) 4,719 11.9 71.8°
Maximum altitude 13:09:00 20° 331° (NNW) 4,293 11.7 69.7°
Drops below altitude 10° 13:18:37 10° 11° (N) 5,152 11.8 67.3°
Sets 13:24:33 0° 27° (NNE) 6,088 12.0 65.9°
